FENGYUN 1C DEB, 30480

Orbit data source: Space-Track

FENGYUN 1C DEB, 30480 is space debris in SSO originally from a launch on Mon, 10 May 1999 UTC launched from the Taiyaun Space Center, China (TSC). Fengyun 1C debris stems from the Chinese weather satellite Fengyun-1C, which was intentionally destroyed by a Chinese anti-satellite missile in 2007. This event dramatically increased the amount of space debris, with thousands of trackable fragments posing hazards to satellites and human spaceflight. The Fengyun 1C debris cloud has become a focal point in discussions about space sustainability and the need for international regulations to prevent the creation of new debris.

Loading next visibility...
Identifier
30480, 1999-025AGS
Orbit
SSO
Country
Flag of CNCN / PRC
Related business
Manufacturer
Unknown
Mission
Spacecraft
Bus & Motor
Unknown
Mass
Unknown
Launch date (UTC)
1999-05-10 (27 years ago)
Launch vehicle
Unknown
Launch site
Taiyaun Space Center, China (TSC)
Object type
Payload
Rocket body
Debris
Shape & HBR
Unknown shape, 0.1 m
Radar Cross Section
Small (<0.1 m²)

Expand to show TLE details & history
Last TLE update: 16 hours ago

TLE from 16 hours ago
0 FENGYUN 1C DEB
1 30480U 99025AGS 25312.55058075  .00001177  00000-0  38033-3 0  9994
2 30480  98.2265 329.0375 0164720 247.9658 265.8434 14.33520367981788
Epoch: 2025-11-08T13:12Z
TLE epoch observation values (Epoch: 2025-11-08T13:12:50.176Z)
Latitude
27.79849°
Longitude
-92.80206°
Altitude
793.902 km
Speed
7.454 km/s
True Right ascension
10h 13m 32s
True Declination
27° 39' 27"
Sunlit
Object was in daylight at epoch
Visualization orbit readout
Latitude
Unknown
Longitude
Unknown
Altitude
Unknown
Speed
Unknown
Apparent Right ascension
Unknown
Apparent Declination
Unknown
Sunlit
N/A
Visualization observer readout
Local Sidereal Time
01:23:29
Azimuth
Unknown
Elevation
Unknown
Doppler factor
Unknown
Orbital elements
Apogee altitude
894.966 km
Perigee altitude
659.243 km
Semi-major axis
7,155.241 km
Eccentricity
0.01647
Inclination
98.2265°
RAAN
329.0375°
Arg. of periapsis
247.9658°
True anomaly
263.96396°
Mean anomaly
265.8434°
Eccentric anomaly
264.90336°
Mean motion
3.58597 °/min
Orbital period
100.39 mins
BSTAR
0.00038033
Loading maneuver chart data...
Computing Atmospheric mass density...

Documentation

Showing up to 5 results
|